YMA7562 FBSK-FQMA

Flight info

Callsign YMA7562
Flight time N/A
Altitude 31000
Route FBSK UDBUL PEDIL AVAGO JSV EXOB IORNAD FQMA
Aircraft B738/M-VGDW/C

Departure

Time N/A
Airport Sir Seretse Khama International Airport (FBSK)

Arrival

Time 2026-04-25 10:19
Airport Maputo Airport (FQMA)
Time Latitude Longitude Altitude Speed Heading
2026-04-25 10:05 -26.00830 31.69636 10977 ft 363 kts 106°
2026-04-25 10:05 -26.01535 31.72317 10988 ft 364 kts 106°
2026-04-25 10:05 -26.02484 31.75919 10975 ft 363 kts 106°
2026-04-25 10:06 -26.03195 31.78630 10986 ft 360 kts 106°
2026-04-25 10:06 -26.03653 31.80372 10971 ft 354 kts 106°
2026-04-25 10:06 -26.04327 31.82937 10948 ft 337 kts 106°
2026-04-25 10:06 -26.05177 31.86181 10953 ft 318 kts 106°
2026-04-25 10:07 -26.05582 31.87730 10962 ft 310 kts 106°
2026-04-25 10:07 -26.06390 31.90817 10974 ft 312 kts 106°
2026-04-25 10:07 -26.06971 31.93048 10814 ft 298 kts 106°
2026-04-25 10:07 -26.07359 31.94542 10190 ft 309 kts 106°
2026-04-25 10:08 -26.07974 31.96858 9569 ft 307 kts 108°
2026-04-25 10:08 -26.08654 31.99052 9279 ft 295 kts 109°
2026-04-25 10:08 -26.09318 32.01210 8622 ft 299 kts 109°
2026-04-25 10:08 -26.09994 32.03404 8129 ft 294 kts 109°
2026-04-25 10:09 -26.10866 32.06245 7459 ft 291 kts 109°
2026-04-25 10:09 -26.11301 32.07660 7129 ft 289 kts 109°
2026-04-25 10:09 -26.11888 32.09802 6606 ft 286 kts 103°
2026-04-25 10:09 -26.12276 32.11971 6097 ft 284 kts 101°
2026-04-25 10:10 -26.12781 32.14792 5477 ft 279 kts 101°
2026-04-25 10:10 -26.13044 32.16215 5124 ft 278 kts 101°
2026-04-25 10:10 -26.13441 32.18317 4635 ft 276 kts 101°
2026-04-25 10:10 -26.13839 32.20371 4177 ft 273 kts 101°
2026-04-25 10:11 -26.14380 32.23129 3947 ft 272 kts 101°
2026-04-25 10:11 -26.14780 32.25166 3925 ft 272 kts 101°
2026-04-25 10:11 -26.15169 32.27217 3925 ft 271 kts 99°
2026-04-25 10:11 -26.15479 32.29291 3933 ft 271 kts 98°
2026-04-25 10:12 -26.15675 32.30656 3932 ft 271 kts 98°
2026-04-25 10:12 -26.16064 32.33383 3916 ft 254 kts 98°
2026-04-25 10:12 -26.16499 32.36371 3913 ft 217 kts 98°
2026-04-25 10:13 -26.16747 32.38025 3934 ft 217 kts 98°
2026-04-25 10:13 -26.16892 32.39703 3918 ft 218 kts 82°
2026-04-25 10:13 -26.16359 32.41874 3933 ft 216 kts 66°
2026-04-25 10:13 -26.15531 32.43225 3923 ft 210 kts 39°
2026-04-25 10:14 -26.14720 32.43837 3934 ft 209 kts 28°
2026-04-25 10:14 -26.13432 32.44583 3933 ft 209 kts 26°
2026-04-25 10:14 -26.12158 32.45322 3920 ft 201 kts 26°
2026-04-25 10:14 -26.10932 32.46037 3923 ft 197 kts 26°
2026-04-25 10:15 -26.09293 32.46990 3931 ft 199 kts 26°
2026-04-25 10:15 -26.08069 32.47703 3930 ft 200 kts 26°
2026-04-25 10:15 -26.06836 32.48423 3905 ft 193 kts 26°
2026-04-25 10:15 -26.05652 32.49120 3461 ft 198 kts 26°
2026-04-25 10:16 -26.04406 32.49848 3009 ft 199 kts 26°
2026-04-25 10:16 -26.03618 32.50308 2937 ft 192 kts 26°
2026-04-25 10:16 -26.02428 32.51002 2933 ft 192 kts 26°
2026-04-25 10:16 -26.01236 32.51698 2928 ft 192 kts 26°
2026-04-25 10:17 -25.99701 32.52598 2568 ft 182 kts 26°
2026-04-25 10:17 -25.98626 32.53233 2312 ft 168 kts 26°
2026-04-25 10:17 -25.97959 32.53627 2182 ft 157 kts 27°
2026-04-25 10:17 -25.96681 32.54468 1775 ft 162 kts 27°
2026-04-25 10:18 -25.96014 32.54860 1447 ft 160 kts 28°
2026-04-25 10:18 -25.95063 32.55454 925 ft 152 kts 26°
2026-04-25 10:18 -25.94138 32.56002 601 ft 149 kts 28°
2026-04-25 10:18 -25.93252 32.56548 358 ft 143 kts 28°
2026-04-25 10:19 -25.92128 32.57229 133 ft 126 kts 28°
2026-04-25 10:19 -25.91554 32.57575 132 ft 50 kts 29°
2026-04-25 10:19 -25.91320 32.57717 135 ft 56 kts 32°
2026-04-25 10:19 -25.91036 32.57901 140 ft 24 kts 44°
2026-04-25 10:20 -25.91047 32.57993 141 ft 20 kts 160°
2026-04-25 10:20 -25.91178 32.58012 141 ft 18 kts 194°
2026-04-25 10:20 -25.91330 32.57927 139 ft 18 kts 210°
2026-04-25 10:20 -25.91406 32.57879 137 ft 19 kts 209°
2026-04-25 10:21 -25.91592 32.57767 134 ft 25 kts 208°
2026-04-25 10:21 -25.91697 32.57702 134 ft 26 kts 210°
2026-04-25 10:21 -25.91859 32.57603 133 ft 26 kts 209°
2026-04-25 10:21 -25.92015 32.57510 134 ft 24 kts 208°
2026-04-25 10:22 -25.92205 32.57396 134 ft 20 kts 208°
2026-04-25 10:22 -25.92288 32.57344 134 ft 18 kts 210°
2026-04-25 10:22 -25.92366 32.57314 134 ft 6 kts 157°
2026-04-25 10:22 -25.92393 32.57346 134 ft 2 kts 118°
2026-04-25 10:23 -25.92398 32.57356 134 ft 1 kts 119°